Torna al catalogo

STARLINK-34793

AttivoComunicazioniSSO
NORAD 65064·PAYLOAD·🇺🇸 United States

Lanciato Jul 31, 2025 da Vandenberg Space Force Base

Loading…

Prossimi Passaggi (prossime 24 ore)

TLE

AggiornatoSource: CelesTrak SupGP

Epoca: Sep 15, 2026, 02:40 UTC

1 65064C 25165J   26258.11159722  .02182500  00000+0  82251-1 0  2585
2 65064  97.2842 329.4561 0001680  82.0801 246.0522 15.26045247    17

Traccia STARLINK-34793 in tempo reale con AllMySat

Download on the App Store